星链-36936(STARLINK-36936)

导读

STARLINK-36936(NORAD编号68012)是SpaceX星链(Starlink)互联网星座中的一颗低轨卫星,属于第二代星链组网卫星,运行于近地轨道,为全球提供高速低延迟宽带互联网服务。 为提升太空安全、降低碰撞风险,SpaceX宣布2026年将包括该星在内的约4400颗星链卫星,从原550公里轨道高度降至480公里,此举可让故障卫星更快再入大气层焚毁,减少空间碎片,缓解近地轨道拥挤带来的凯斯勒现象担忧,保障星座长期安全运营。

基本信息
目录编号:
68012
目录名称:
STARLINK-36936
国际标识:
2026-039AC
轨道中心:
EARTH
卫星名称:
星链-36936
卫星全名:
星链-36936(STARLINK-36936)
卫星状态:
在轨 (已飞行189 天)
发射日期:
2026-02-27 UTC
国别 :
美国 (US)
星等 :
--
轨道信息
数据来源 国际轨道数据
星历时间: 2026-09-04T07:24:08+0800
12小时前
查看轨道信息
半长轴: 6861.169km
偏心率: 0.0001227
轨道倾角: 43.005°
近地点辐角 253.905°
升交点赤经 121.736°
平近点角 106.167°
近地点: 482.19km
远地点: 483.874km
周期: 94.266分钟
每日圈数: 15.27586
详细信息
固有亮度:
5
最大亮度:
2.5
卫星平台:
Starlink V1.0
覆盖范围:
全球
运营商:
太空探索技术公司
运营商所在国:
美国
制造商(研发单位):
太空探索技术公司
制造商所在国:
美国
使用方式:
暂无
卫星简介
Starlink 计划是 SpaceX 推出的全球卫星互联网项目,通过发射低轨道卫星,为全球尤其是偏远地区提供高速、低延迟的互联网服务。自 2019 年起,Starlink 已部署数千颗卫星,旨在缩小全球数字鸿沟,推动互联网普及。该项目还为军事、航空等行业提供通信支持,带来广泛经济效益。
2D轨道图
3D轨道图
轨道高度分析图
轨道倾角分析图
轨道综合分析图
查看轨道综合分析图